Location: Newark
(39.6867°N, 100.6772°W)
Time: 05:36:47
(UTC+00:00)

Transit 4A - Visible Passes

Search period start: 21 October 2019 00:00
Search period end: 31 October 2019 00:00
Orbit: 867 x 978 km, 66.8° (Epoch: 19 October)

Date Brightness Start Highest point End Pass type
(mag) Time Alt. Az. Time Alt. Az. Time Alt. Az.
21 Oct 10.4 09:22:27 12° SE 09:24:39 15° ESE 09:27:55 10° ENE visible
21 Oct 7.9 11:06:05 23° SSW 11:10:12 85° WNW 11:16:30 10° NNE visible
22 Oct 9.8 09:32:58 22° ESE 09:33:41 23° ESE 09:38:26 10° ENE visible
22 Oct 8.0 11:16:34 31° SW 11:19:36 60° WNW 11:25:46 10° NNE visible
23 Oct 9.3 09:43:13 34° E 09:43:13 34° E 09:48:23 10° NE visible
23 Oct 8.4 11:26:48 31° W 11:29:03 41° NW 11:34:57 10° NNE visible
24 Oct 8.9 09:53:16 45° ENE 09:53:16 45° ENE 09:58:03 10° NE visible
24 Oct 8.8 11:36:50 26° WNW 11:38:37 30° NW 11:44:01 10° N visible
25 Oct 8.7 10:03:09 47° NE 10:03:09 47° NE 10:07:31 10° NNE visible
25 Oct 9.2 11:46:42 20° WNW 11:48:16 22° NW 11:52:57 10° N visible
26 Oct 8.8 10:12:54 41° NNE 10:12:54 41° NNE 10:16:52 10° NNE visible
26 Oct 9.5 11:56:27 15° WNW 11:58:01 16° NW 12:01:41 10° N visible
27 Oct 10.8 08:39:01 10° NE 08:39:01 10° NE 08:39:05 10° NE visible
27 Oct 9.0 10:22:34 33° N 10:22:34 33° N 10:26:06 10° NNE visible
27 Oct 9.8 12:06:06 10° NW 12:07:52 12° NW 12:09:55 10° NNW visible
28 Oct 10.7 08:48:35 11° NE 08:48:35 11° NE 08:48:54 10° NE visible
28 Oct 9.3 10:32:08 26° N 10:32:08 26° N 10:35:14 10° NNE visible
29 Oct 10.6 08:58:06 12° NE 08:58:06 12° NE 08:58:29 10° NE visible
29 Oct 9.6 10:41:38 20° NNW 10:41:38 20° NNW 10:44:15 10° N visible
30 Oct 10.5 09:07:32 12° NNE 09:07:32 12° NNE 09:07:55 10° NNE visible
30 Oct 9.8 10:51:04 16° NNW 10:51:04 16° NNW 10:53:08 10° N visible
